This demonstration page uses our WeatherBlox Daily Observations layout. Learn more.

38.89511, -77.03637

Hourly Observations for January 2, 2016

Temp ( °F °C ) Dew Point ( °F °C ) Humidity (%) Winds ( mph kmh ) Pressure ( in mb ) Visibility ( mi km ) Precip ( " mm )
12:52 am 00:52 Mostly Clear 36 2.2 22 -5.6 57 57 S 7 11 30.14 1021 10 16.0934 0 0
1:52 am 01:52 Clear 36 2.2 22 -5.6 57 57 SW 6 9 30.15 1021 10 16.0934 0 0
2:52 am 02:52 Mostly Clear 34 1.1 23 -5 64 64 SSW 5 7 30.14 1021 10 16.0934 0 0
3:52 am 03:52 Mostly Clear 33 0.6 23 -5 66 66 SW 5 7 30.14 1021 10 16.0934 0 0
4:52 am 04:52 Clear 33 0.6 24 -4.4 70 70 SW 6 9 30.14 1021 10 16.0934 0 0
5:52 am 05:52 Clear 33 0.6 23 -5 66 66 WSW 6 9 30.14 1021 10 16.0934 0 0
6:52 am 06:52 Mostly Clear 33 0.6 23 -5 66 66 SW 5 7 30.15 1021 10 16.0934 0 0
7:52 am 07:52 Mostly Sunny 34 1.1 23 -5 64 64 WSW 7 11 30.17 1022 10 16.0934 0 0
8:52 am 08:52 Mostly Sunny 38 3.3 24 -4.4 57 57 WSW 6 9 30.18 1022 10 16.0934 0 0
9:52 am 09:52 Sunny 40 4.4 26 -3.3 58 58 S 6 9 30.19 1022 10 16.0934 0 0
10:52 am 10:52 Sunny 43 6.1 23 -5 45 45 WSW 8 13 30.18 1022 10 16.0934 0 0
11:52 am 11:52 Sunny 45 7.2 24 -4.4 44 44 WNW 8 13 30.14 1021 10 16.0934 0 0
12:52 pm 12:52 Sunny 46 7.8 24 -4.4 42 42 WSW 10 17 30.09 1019 10 16.0934 0 0
1:52 pm 13:52 Sunny 48 8.9 24 -4.4 39 39 WSW 10 17 30.07 1018 10 16.0934 0 0
2:52 pm 14:52 Sunny 48 8.9 24 -4.4 39 39 SW 9 15 30.04 1017 10 16.0934 0 0
3:52 pm 15:52 Sunny 48 8.9 25 -3.9 41 41 SSW 8 13 30.04 1017 10 16.0934 0 0
4:52 pm 16:52 Sunny 46 7.8 24 -4.4 42 42 SW 8 13 30.04 1017 10 16.0934 0 0
5:52 pm 17:52 Clear 44 6.7 26 -3.3 49 49 S 8 13 30.05 1018 10 16.0934 0 0
6:52 pm 18:52 Clear 43 6.1 26 -3.3 51 51 SSW 6 9 30.04 1017 10 16.0934 0 0
7:52 pm 19:52 Clear 43 6.1 25 -3.9 49 49 SW 3 6 30.04 1017 10 16.0934 0 0
8:52 pm 20:52 Clear 42 5.6 26 -3.3 53 53 SW 5 7 30.02 1017 10 16.0934 0 0
9:52 pm 21:52 Clear 41 5 28 -2.2 60 60 WSW 5 7 30.02 1017 10 16.0934 0 0
10:52 pm 22:52 Clear 40 4.4 29 -1.7 65 65 Calm 30.02 1017 10 16.0934 0 0
11:52 pm 23:52 Clear 38 3.3 32 0 79 79 S 3 6 30.01 1016 10 16.0934 0 0

Powered by AerisWeather